Weather History for Barranquilla, Colombia

Change the Weather History Date:

Tuesday, March 5, 2013

  Actual Average Record
Temperature  
Mean Temperature 84 °F -  
Max Temperature 91 °F 90 °F 91 °F (2013)
Min Temperature 78 °F 75 °F 73 °F (1997)
Cooling Degree Days 20    
Growing Degree Days 34 (Base 50)    
Moisture  
Dew Point 75 °F    
Average Humidity 77    
Maximum Humidity 89    
Minimum Humidity 50    
Precipitation  
Precipitation 0.00 in 0.01 in - ()
Sea Level Pressure  
Sea Level Pressure 29.84 in    
Wind  
Wind Speed 11 mph ()    
Max Wind Speed 18 mph    
Max Gust Speed -    
Visibility 5.9 miles    
Events      
Averages and records for this station are not official NWS values.
T = Trace of Precipitation, MM = Missing Value Source: Averaged Metar Reports

Daily Weather History Graph

Daily Weather History Graph

Search for Another Location

Airport:

Trip Planner

Search our weather history database for the weather conditions in past years. The results will help you decide how hot, cold, wet, or windy it might be!

Date:

Astronomy

Mar. 05, 2013 Rise Set
Actual Time 6:11 AM COT 6:09 PM COT
Civil Twilight 5:50 AM COT 6:30 PM COT
Nautical Twilight 5:26 AM COT 6:55 PM COT
Astronomical Twilight 5:01 AM COT 7:19 PM COT
Moon 12:36 AM COT (3/5) 12:30 PM COT (3/5)
Length of Visible Light 12h 40m
Length of Day
11h 57m
Last Quarter, 41% of the Moon is Illuminated
Mar 5
Last Quarter
Mar 11
New
Mar 19
First Quarter
Mar 27
Full
Apr 2
Last Quarter

Hourly Weather History & Observations

Time (COT) Temp. Heat Index Dew Point Humidity Pressure Visibility Wind Dir Wind Speed Gust Speed Precip Events Conditions
12:00 AM 80.6 °F 86.2 °F 75.2 °F 84% 29.85 in 6.2 mi NNE 12.7 mph - N/A   Scattered Clouds
1:00 AM 80 °F - 76 °F 83% 29.85 in 6 mi NNE 15.7 mph - -   Haze
1:00 AM 80.6 °F 86.2 °F 75.2 °F 84% 29.84 in 6.2 mi NNE 16.1 mph - N/A   Scattered Clouds
2:00 AM 80.6 °F 86.2 °F 75.2 °F 84% 29.81 in 6.2 mi NNE 13.8 mph - N/A   Scattered Clouds
3:00 AM 80.6 °F 86.2 °F 75.2 °F 84% 29.80 in 6.2 mi NNE 13.8 mph - N/A   Partly Cloudy
4:00 AM 80 °F - 76 °F 83% 29.80 in 6 mi NNE 8.9 mph - -   Haze
4:00 AM 80.6 °F 86.2 °F 75.2 °F 84% 29.79 in 6.2 mi NNE 8.1 mph - N/A   Partly Cloudy
5:00 AM 78.8 °F - 75.2 °F 89% 29.80 in 6.2 mi NE 6.9 mph - N/A   Partly Cloudy
6:00 AM 78.8 °F - 75.2 °F 89% 29.83 in 4.3 mi NNE 6.9 mph - N/A   Scattered Clouds
7:00 AM 80.6 °F 86.2 °F 75.2 °F 84% 29.85 in 3.1 mi North 5.8 mph - N/A   Haze
8:00 AM 82.4 °F 89.5 °F 75.2 °F 79% 29.86 in 5.0 mi NNE 10.4 mph - N/A   Mostly Cloudy
9:00 AM 84.2 °F 92.3 °F 75.2 °F 74% 29.89 in 6.2 mi NNE 15.0 mph - N/A   Scattered Clouds
10:00 AM 87 °F - 76 °F 63% 29.92 in 6 mi NNE 11.2 mph - -   Haze
10:00 AM 86.0 °F 96.9 °F 77.0 °F 74% 29.91 in 6.2 mi NNE 11.5 mph - N/A   Scattered Clouds
11:00 AM 86.0 °F 95.1 °F 75.2 °F 70% 29.90 in 6.2 mi NE 15.0 mph - N/A   Scattered Clouds
12:00 PM 87.8 °F 97.6 °F 75.2 °F 66% 29.87 in 6.2 mi NE 5.8 mph - N/A   Scattered Clouds
1:00 PM 90 °F - 74 °F 50% 29.85 in 6 mi NE 15.7 mph - -   Haze
1:00 PM 80.6 °F 85.4 °F 73.4 °F 79% 29.89 in 6.2 mi NNE 13.8 mph - N/A   Mostly Cloudy
2:00 PM 89.6 °F 98.2 °F 73.4 °F 59% 29.83 in - NE 17.3 mph - N/A   Clear
3:00 PM 86.0 °F 95.1 °F 75.2 °F 70% 29.80 in - NE 18.4 mph - N/A   Clear
4:00 PM 86 °F - 75 °F 62% 29.79 in 6 mi NE 13.4 mph - -   Haze
4:00 PM 86.0 °F 95.1 °F 75.2 °F 70% 29.79 in - NE 18.4 mph - N/A   Clear
5:00 PM 84.2 °F 92.3 °F 75.2 °F 74% 29.80 in - NE 18.4 mph - N/A   Clear
6:00 PM 82.4 °F 89.5 °F 75.2 °F 79% 29.80 in - NE 13.8 mph - N/A   Clear
7:00 PM 82 °F - 75 °F 75% 29.82 in 6 mi NE 6.7 mph - -   Haze
7:00 PM 82.4 °F 89.5 °F 75.2 °F 79% 29.81 in 6.2 mi NE 5.8 mph - N/A   Scattered Clouds
8:00 PM 80.6 °F 86.2 °F 75.2 °F 84% 29.82 in 6.2 mi NNE 15.0 mph - N/A   Scattered Clouds
9:00 PM 80.6 °F 86.2 °F 75.2 °F 84% 29.85 in 6.2 mi NNE 11.5 mph - N/A   Scattered Clouds
10:00 PM 80 °F - 76 °F 82% 29.85 in 6 mi NE 11.2 mph - -   Haze
10:00 PM 80.6 °F 86.2 °F 75.2 °F 84% 29.84 in - NE 10.4 mph - N/A   Clear
11:00 PM 80 °F - 76 °F 82% 29.85 in 6 mi NE 11.2 mph - -   Haze
11:00 PM 80.6 °F 86.2 °F 75.2 °F 84% 29.86 in 6.2 mi NE 16.1 mph - N/A   Scattered Clouds